Regional Weather Roundup
Issued by NWS

Home | Current Version | Previous Version | Graphics & Text | Print | Product List | Glossary On
Versions: 1 2 3 4 5 6 7 8 9 10 11 12 13 14 15 16 17 18 19 20 21 22 23 24 25 26 27 28 29 30 31 32 33 34 35 36 37 38 39 40 41 42 43 44 45 46 47 48 49 50
327
ASUS45 KSLC 180310
RWRUT

UTAH REGIONAL WEATHER ROUNDUP
NATIONAL WEATHER SERVICE SALT LAKE CITY UT
800 PM MST TUE JAN 17 2017

UTZ001>011-023>025-180400-

NORTHERN UTAH

CITY           SKY/WX    TMP DP  RH WIND       PRES   REMARKS
BRIGHAM CITY     N/A     15   9  78 N3        30.27R
HILL AFB       PTCLDY    19  13  76 E3        30.22R
LOGAN          CLEAR     10   4  76 CALM      30.26R
OGDEN          PTCLDY    18  15  88 N3        30.23R
SALT LAKE CITY PTCLDY    25  20  81 NW7       30.24R WCI  17
TOOELE VALLEY  PTCLDY    25  23  93 CALM      30.25S
WENDOVER       CLOUDY    23  18  80 E3        30.25S
HEBER CITY     PTCLDY     1  -4  78 CALM      30.18S
WEST JORDAN    CLEAR     24  24 100 NW6       30.23R WCI  16

$$

UTZ011>015-024>027-180400-

CENTRAL/NORTHEAST UTAH

CITY           SKY/WX    TMP DP  RH WIND       PRES   REMARKS
PROVO AIRPORT  PTCLDY    23  19  85 CALM      30.23S
MOAB/CANYONLAN CLEAR     31  27  85 CALM      30.18R
DELTA          CLEAR     27  21  80 S3        30.21F
PRICE          PTCLDY    15   6  67 N8        30.17S WCI   4
RICHFIELD      CLEAR     27  23  86 NE2       30.22S
ROOSEVELT      CLOUDY    21  16  79 CALM      30.31S
VERNAL         CLOUDY    16  12  84 CALM      30.28S

$$

UTZ013>016-019>022-027-180400-

SOUTHERN UTAH

CITY           SKY/WX    TMP DP  RH WIND       PRES   REMARKS
BRYCE CANYON   CLEAR      7   4  87 SW7       30.17R WCI  -5
CEDAR CITY     CLEAR     26  19  74 SE5       30.17R WCI  20
MILFORD        CLEAR     25  20  81 NW6       30.20R WCI  18
ST GEORGE      PTCLDY    39  27  60 S5        30.18S
HANKSVILLE     CLEAR     32  27  80 MISG      30.21S
KANAB          CLEAR     36  28  75 N5        30.20R WCI  32
BLANDING       CLEAR     31  29  93 N7        30.22S WCI  24

$$

REGIONAL REPORTS     COLORADO/ARIZONA

CITY           SKY/WX    TMP DP  RH WIND       PRES   REMARKS
CRAIG, CO      FOG       15  11  83 E3        30.22R VSB 1/4
GRAND JUNCTION CLOUDY    31  29  92 CALM      30.17R
RIFLE, CO      CLOUDY    28  23  81 SE5       30.18R WCI  23
MONTROSE, CO   CLOUDY    38  31  76 CALM      30.18S
CORTEZ, CO     CLOUDY    39  34  82 CALM      30.14F
COLORADO CITY    N/A     32  28  86 CALM      30.19R
PAGE, AZ       CLEAR     40  25  55 CALM      30.15S
GRAND CANYON   CLEAR     27  25  92 CALM      30.16R
KINGMAN, AZ    CLEAR     39  21  48 E8        30.14R WCI  33
FLAGSTAFF, AZ  CLEAR     28  27  96 CALM      30.15R

$$

REGIONAL REPORTS    NEVADA/IDAHO/WYOMING

CITY           SKY/WX    TMP DP  RH WIND       PRES   REMARKS
LAS VEGAS, NV  CLEAR     50  19  29 SW5       30.14R
ELY, NY        CLEAR     14  10  84 S16G32    30.16S WCI  -2
ELKO, NV       MOCLDY    12   5  73 E8        30.19F WCI   0
POCATELLO, ID  CLOUDY     8   4  83 E7        30.21F WCI  -3
BURLEY, ID     CLEAR     16  10  77 E9        30.14F WCI   4
FORT BRIDGER,    N/A     -1  -6  82 CALM      30.16S
EVANSTON, WY   CLOUDY    20   6  55 S3        30.12F
ROCK SPRINGS,  CLOUDY     4  -2  76 CALM      30.14F

$$




USA.gov is the U.S. government's official web portal to all federal, state and local government web resources and services.